Location: Newark
(52.4787°S, 179.0532°W)
Time: 04:51:23
(UTC+00:00)

Transit 2A Rocket - Pass Details

Date: 25 November 2019
Orbit: 594 x 909 km, 66.7° (Epoch: 08 December)

Event Time Altitude Azimuth Distance (km) Brightness Sun altitude
Rises 04:29:30 0° 221° (SW) 3,574 9.0 27.4°
Reaches altitude 10° 04:32:05 10° 222° (SW) 2,625 8.5 27.0°
Maximum altitude 04:38:13 73° 305° (NW) 941 6.2 26.0°
Drops below altitude 10° 04:44:02 10° 28° (NNE) 2,491 7.5 25.2°
Sets 04:46:25 0° 29° (NNE) 3,380 8.0 24.8°
